Regional Weather Roundup
Issued by NWS

Home | Current Version | Previous Version | Text Only | Print | Product List | Glossary On
Versions: 1 2 3 4 5 6 7 8 9 10 11 12 13 14 15 16 17 18 19 20 21 22 23 24 25 26 27 28 29 30 31 32 33 34 35 36 37 38 39 40 41 42 43 44 45 46 47 48 49 50
000
ASHW40 PHFO 171143
RWRHI

WEATHER ROUNDUP FOR HAWAII
NATIONAL WEATHER SERVICE HONOLULU HI
100 AM HST TUE OCT 17 2017

THIS IS AN AUTOMATED REPORT THAT HAS NOT BEEN QUALITY CONTROLLED.

NOTE..."FAIR" INDICATES FEW OR NO CLOUDS BELOW 12,000 FEET WITH NO
SIGNIFICANT WEATHER AND/OR OBSTRUCTIONS TO VISIBILITY.

* - THESE SITES REPORT LIMITED FIELDS
# - BUOY DATA PROVIDED BY PACIFIC ISLANDS OCEAN OBSERVING SYSTEM.

HIZ001>004-171200-
KAUAI-NIIHAU-

CITY           SKY/WX    TMP DP  RH WIND       PRES   REMARKS
LIHUE APT      MOCLDY    79  68  69 NE23      30.10F
PORT ALLEN*      N/A     77 N/A N/A NE17G23     N/A
POIPU*           N/A     77 N/A N/A NE12G23     N/A
PRINCEVILLE*     N/A     75 N/A N/A SE7G13      N/A
KOKOLE POINT*  NOT AVBL
MOLOAA DAIRY*    N/A     75  66  73 E5G14       N/A
WAIMEA HTS*      N/A     75  61  60 E6G15       N/A
PUU OPAE*        N/A     68  55  64 E13G20      N/A
PUU LUA*       NOT AVBL
MAKAHA RIDGE*    N/A     68  57  68 NE5G12      N/A
$$

HIZ005>011-171200-
OAHU-

CITY           SKY/WX    TMP DP  RH WIND       PRES   REMARKS
HONOLULU       PTCLDY    78  63  59 NE23      30.04F
KALAELOA       CLEAR     77  62  59 NE7       30.06F
KANEOHE MCB    PTCLDY    78  71  79 NE14G24   30.05
WHEELER FIELD  FAIR      72  64  78 NE7       30.06S
BELLOWS*         N/A    N/A N/A N/A NE24G32     N/A
KAHUKU*          N/A    N/A N/A N/A NE9G18      N/A
WHEELER*         N/A    N/A N/A N/A NE8G16      N/A
WAIANAE HARBOR   N/A    N/A N/A N/A NE10G29     N/A
DILLINGHAM*      N/A     73  63  68 W3G13       N/A
KAHUKU TRN*      N/A     82  73  74 W14G30      N/A
KAWAILOA*        N/A     72  63  73 E13G28      N/A
KII*             N/A     79  68  69 E22G38      N/A
MAKUA RANGE*     N/A     75  61  60 W10G24      N/A
OAHU FOREST NW   N/A     70  63  78 E20G41      N/A
SCHOFIELD BRK*   N/A     72  64  78 MISG        N/A
SCHOFIELD S*   NOT AVBL
WAIANAE VLY*     N/A     82  73  74 SE6G20      N/A
KUAOKALA*        N/A     72  61  68 NE18G39     N/A
HONOULIUULI*   NOT AVBL
MOKUOLOE IS*   NOT AVBL
PALEHUA*         N/A     64  61  88 NE16G31     N/A
WAIAWA PHB*    NOT AVBL
$$

HIZ012>013-171200-
MOLOKAI-

CITY           SKY/WX    TMP DP  RH WIND       PRES   REMARKS
MOLOKAI AIRPT  MOCLDY    75  67  76 NE16G28   30.07F
KALAUPAPA      NOT AVBL
MAKAPULAPAI*     N/A     75  66  73 E23G38      N/A
MOLOKAI 1*       N/A     64  57  77 E3          N/A
PUU ALII*        N/A     58  58  99 N3G20       N/A
$$

HIZ016-171200-
KAHOOLAWE-

CITY           SKY/WX    TMP DP  RH WIND       PRES   REMARKS
KAHOOLAWE*     NOT AVBL
HAKIOAWA*        N/A     73  62  68 MISG      30.44F
HONOKANAIA*      N/A     77  63  61 N6G35     29.97F
KANELOA*         N/A    N/A N/A N/A NE16G39   30.09
KEALIALALO*    NOT AVBL
LUA MAKIKA*    NOT AVBL
$$

HIZ014>015-171200-
LANAI-

CITY           SKY/WX    TMP DP  RH WIND       PRES   REMARKS
LANAI CITY     FAIR      70  62  76 NE25G36   30.06F
LANAI 1*       NOT AVBL
$$

HIZ017>028-171200-
MAUI-

CITY           SKY/WX    TMP DP  RH WIND       PRES   REMARKS
KAHULUI        MOCLDY    73  67  81 NE16G30   30.06F
KAPALUA-W MAUI NOT AVBL
HANA AIRPORT   NOT AVBL
HANA*            N/A     75 N/A N/A NE12G20     N/A
HALEAKALA SUMM   N/A     43  16  33 E12G44      N/A
MAALAEA BAY*     N/A     75 N/A N/A N21G30      N/A
HALEAKALA*     NOT AVBL
KAUPO GAP*     NOT AVBL
KULA 1*          N/A     46  39  76 NE3         N/A
$$

HIZ023>026-171200-
BIG ISLAND OF HAWAII COAST AND LOWER SLOPES-

CITY           SKY/WX    TMP DP  RH WIND       PRES   REMARKS
KAILUA KONA    MOCLDY    77  60  55 NE10      29.97R
HILO           LGT RAIN  69  67  93 SW8       30.06F
HONOKAA*         N/A     66 N/A N/A VRB1        N/A
KAWAIHAE MWT*    N/A     79 N/A N/A E20G35      N/A
KAWAIHAE*        N/A     77 N/A N/A E12       29.98R
SOUTH POINT*     N/A     72 N/A N/A VRB22G32    N/A
UPOLU AIRPORT* NOT AVBL
KAMUELA*       NOT AVBL
HAKALAU*         N/A     48  48 100 W3G12       N/A
KALOKO-HONOKO*   N/A     73  66  78 NE5       29.95F
PALI 2*          N/A     61  59  94 S12G30      N/A
KEALAKOMO*       N/A     73  63  68 VRB15G22    N/A
KAUPULEHU*       N/A     70  55  60 W3G16       N/A
KAPAPALA*        N/A     67  62  84 E8G22       N/A
LOWER KAHUKU*    N/A    N/A N/A N/A VRB2G9      N/A
PUHE CS*         N/A     79  59  50 E17G36      N/A
PUHO CS*         N/A     73  67  82 NE3G10      N/A
PTA KEAMUKU*     N/A     61  52  72 E10G40      N/A
WAIKOLOA*        N/A     72  57  60 E24G40      N/A
$$

HIZ027>028-171200-
BIG ISLAND OF HAWAII INTERIOR AND SUMMMITS-

CITY           SKY/WX    TMP DP  RH WIND       PRES   REMARKS
BRADSHAW FIELD CLOUDY    46  36  70 CALM      30.31F
MK VISITOR CEN   N/A     54 -11   6 N13         N/A
MAUNA KEA*       N/A     36 -26   6 NE30        N/A  WCI  22
MAUNA LOA*       N/A     43 -40   2 MISG        N/A
MAUNA LOA 1*   NOT AVBL
PTA KIPUKA*      N/A     73  68  83 NE8G18      N/A
PTA RANGE 17*    N/A     54  48  82 NW15G26     N/A
PTA WEST*        N/A     75  64  69 SE9G28      N/A
NENE CABIN*      N/A     45  45 100 NE3G10      N/A
AHUMOA*          N/A     46  43  87 S7          N/A
PTA PORTABLE*  NOT AVBL
PUU MALI*        N/A     52  50  93 E20G35      N/A
$$

HIC003-171200-
NORTHWEST ISLANDS-

CITY           SKY/WX    TMP DP  RH WIND       PRES   REMARKS
MIDWAY ISLAND  CLOUDY    79  73  83 E22       30.19F
MIDWAY NOS*      N/A     79 N/A N/A MISG      30.18S
FRENCH FRIGATE NOT AVBL
$$

PHZ110>124-180-171200-
BUOY REPORTS

STATION/POSITION TIME  TEMP    WIND        PRES    WAVE   SWELL
                       AIR SEA DIR/SP/G            HT/PER HT/DIR
                 (UTC) (F)     (DEG/KT/KT) (MB)    (FT/S) (FT/D)
BUOY 51001       1130   77 81   70/ 21/ 25 1020.8F
BUOY 51101       1050   78 81   70/ 21/ 31 1020.9F  11/ 9   8/100
BUOY 51100       NOT AVBL
BUOY 51002       1130   80 80   70/ 23/ 31 1013.4F
BUOY 51003       1050   75 82  110/ 16/ 21 1015.2F  10/10   8/ 90
BUOY 51004       1130   79 81   50/ 19/ 25 1014.1F
WAIMEA BAY#      1102      78                N/A     7/ 9   3/320
MOKAPU POINT#    1104      80                N/A    10/ 9   3/ 50
LANAI#           NOT AVBL
BARBERS PT 2#    NOT AVBL
PAUWELA#         NOT AVBL
HILO#            1127      80                N/A     9/10   3/ 70
KANEOHE BAY#     NOT AVBL
KANEOHE BAY 2#   NOT AVBL
HANALEI#         1122      81                N/A    10/ 9   3/ 50
KAHULUI HARBOR   1118   76 79   50/  9/ 12 1017.6
HONOLULU HARBOR  1118   75 81   50/  5/ 15 1018.2
PEARL HARBOR#    1100      81                N/A     4/15   2/160
KILO NALU        NOT AVBL
HILO HARBOR      NOT AVBL
MOKUOLOE         1036   79 80   70/ 16/ 20 1018.5F
NAWILIWILI       1118   77      50/ 14/ 21 1018.7
WHOTS BUOY       NOT AVBL
BUOY 51028       NOT AVBL
$$

......................KEY........................................
  SKY/WX - SKY CONDITIONS/PRESENT WEATHER
  TMP    - TEMPERATURE IN FAHRENHEIT
  DWPT   - DEWPOINT IN FAHRENHEIT
  RH     - RELATIVE HUMIDITY IN PERCENT
  WIND   - DIRECTION AND SPEED /MPH FOR ISLANDS...KTS FOR BUOYS/
  PRES   - MEAN SEA LEVEL PRESSURE IN INCHES OF HG
  VSB    - VISIBILITY IN MILES
  HX     - HEAT INDEX
  WCI    - WIND CHILL INDEX
  VRB    - VARIABLE WIND DIRECTION
  N/A    - NOT AVAILABLE




USA.gov is the U.S. government's official web portal to all federal, state and local government web resources and services.